Zurück zum Katalog

GONETS M 16

M26

AktivKommunikationPO
NORAD 44907·PAYLOAD·🇷🇺 Russia

Gestartet Dec 26, 2019 von Plesetsk Cosmodrome

Loading…

Nächste Überflüge (nächste 24 Stunden)

TLE

AktuellSource: Space-Track

Epoche: Sep 14, 2026, 14:47 UTC

1 44907U 19096C   26257.61616111 -.00000114  00000-0 -89455-3 0  9996
2 44907  82.5229  28.5656 0011090  27.5350 332.6315 12.42893588304740

Verfolge GONETS M 16 in Echtzeit mit AllMySat

Download on the App Store